TimeEST,TemperatureF,Dew PointF,Humidity,Sea Level PressureIn,VisibilityMPH,Wind Direction,Wind SpeedMPH,Gust SpeedMPH,PrecipitationIn,Events,Conditions,WindDirDegrees,DateUTC
12:07 AM,53.6,53.6,100,29.67,4.0,South,5.8,-,0.02,Rain,Rain,170,2012-12-10 05:07:00
12:14 AM,53.6,53.6,100,29.67,4.0,South,6.9,-,0.03,Rain,Light Rain,180,2012-12-10 05:14:00
12:56 AM,54.0,52.0,93,29.68,4.0,West,6.9,-,0.13,Rain,Rain,280,2012-12-10 05:56:00
1:04 AM,53.6,51.8,94,29.66,5.0,WSW,4.6,-,0.02,Rain,Rain,250,2012-12-10 06:04:00
1:15 AM,53.6,51.8,94,29.65,5.0,SW,3.5,-,0.04,Rain,Light Rain,230,2012-12-10 06:15:00
1:56 AM,54.0,53.1,97,29.65,8.0,SW,10.4,-,0.10,Rain,Light Rain,220,2012-12-10 06:56:00
2:56 AM,54.0,51.1,90,29.64,10.0,SW,12.7,-,0.00,,Overcast,220,2012-12-10 07:56:00
3:31 AM,53.6,51.8,94,29.63,10.0,SW,11.5,-,N/A,,Mostly Cloudy,220,2012-12-10 08:31:00
3:48 AM,53.6,51.8,94,29.62,9.0,SW,12.7,-,N/A,,Overcast,220,2012-12-10 08:48:00
3:56 AM,53.1,51.1,93,29.63,9.0,SW,11.5,-,N/A,,Overcast,230,2012-12-10 08:56:00
4:28 AM,53.6,51.8,94,29.62,4.0,SW,11.5,-,N/A,,Overcast,230,2012-12-10 09:28:00
4:56 AM,53.1,52.0,96,29.64,4.0,WSW,10.4,-,0.01,Rain,Light Rain,250,2012-12-10 09:56:00
5:18 AM,50.0,48.2,94,29.63,7.0,WNW,9.2,-,0.01,Rain,Light Rain,290,2012-12-10 10:18:00
5:56 AM,48.0,46.9,96,29.64,3.0,WNW,13.8,-,0.01,,Overcast,300,2012-12-10 10:56:00
6:17 AM,48.2,46.4,93,29.63,3.0,WNW,11.5,-,N/A,,Overcast,290,2012-12-10 11:17:00
6:31 AM,46.4,46.4,100,29.63,4.0,WNW,11.5,-,N/A,,Overcast,290,2012-12-10 11:31:00
6:46 AM,46.4,46.4,100,29.63,7.0,West,5.8,-,N/A,,Overcast,280,2012-12-10 11:46:00
6:56 AM,48.0,46.0,93,29.64,10.0,West,9.2,-,N/A,,Overcast,260,2012-12-10 11:56:00
7:56 AM,46.9,46.0,97,29.65,10.0,West,6.9,-,N/A,,Overcast,270,2012-12-10 12:56:00
8:39 AM,46.4,44.6,93,29.64,8.0,WNW,5.8,-,0.01,,Overcast,290,2012-12-10 13:39:00
8:56 AM,46.9,45.0,93,29.66,6.0,West,8.1,-,0.01,Rain,Light Rain,280,2012-12-10 13:56:00
9:11 AM,46.4,44.6,93,29.65,7.0,WNW,9.2,-,0.00,,Overcast,290,2012-12-10 14:11:00
9:26 AM,46.4,44.6,93,29.66,5.0,WNW,12.7,-,0.00,,Overcast,300,2012-12-10 14:26:00
9:56 AM,45.0,44.1,97,29.67,3.0,NW,12.7,-,0.00,,Overcast,310,2012-12-10 14:56:00
10:04 AM,44.6,42.8,93,29.66,2.5,WNW,11.5,-,N/A,,Overcast,300,2012-12-10 15:04:00
10:14 AM,44.6,42.8,93,29.65,2.5,WNW,8.1,-,0.00,Rain,Light Rain,300,2012-12-10 15:14:00
10:52 AM,42.8,42.8,100,29.66,1.8,NW,12.7,-,0.00,,Overcast,310,2012-12-10 15:52:00
10:56 AM,42.1,41.0,96,29.67,1.8,WNW,12.7,-,0.00,,Overcast,300,2012-12-10 15:56:00
11:33 AM,39.2,39.2,100,29.64,2.5,NW,11.5,-,N/A,,Overcast,310,2012-12-10 16:33:00
11:56 AM,39.9,39.9,100,29.63,2.5,NW,12.7,-,N/A,,Overcast,320,2012-12-10 16:56:00
12:08 PM,39.2,37.4,93,29.64,4.0,NW,16.1,-,N/A,,Overcast,310,2012-12-10 17:08:00
12:20 PM,39.2,37.4,93,29.64,5.0,WNW,12.7,-,N/A,,Overcast,300,2012-12-10 17:20:00
12:31 PM,39.2,37.4,93,29.64,5.0,WNW,12.7,-,N/A,,Overcast,300,2012-12-10 17:31:00
12:56 PM,39.0,37.0,93,29.67,4.0,WNW,15.0,-,N/A,,Overcast,290,2012-12-10 17:56:00
1:09 PM,37.4,37.4,100,29.66,3.0,NW,11.5,-,N/A,,Overcast,310,2012-12-10 18:09:00
1:33 PM,37.4,35.6,93,29.64,8.0,NW,9.2,-,N/A,,Overcast,310,2012-12-10 18:33:00
1:42 PM,37.4,35.6,93,29.65,8.0,WNW,10.4,-,N/A,,Overcast,300,2012-12-10 18:42:00
1:56 PM,39.0,34.0,82,29.67,10.0,NW,11.5,-,N/A,,Overcast,310,2012-12-10 18:56:00
2:56 PM,37.9,34.0,86,29.66,10.0,WNW,5.8,-,N/A,,Overcast,300,2012-12-10 19:56:00
3:56 PM,37.9,34.0,86,29.69,10.0,WNW,11.5,-,N/A,,Overcast,290,2012-12-10 20:56:00
4:12 PM,37.4,33.8,87,29.68,10.0,NW,6.9,-,N/A,,Overcast,310,2012-12-10 21:12:00
4:56 PM,37.9,33.1,83,29.71,10.0,WNW,8.1,-,N/A,,Overcast,300,2012-12-10 21:56:00
5:43 PM,37.4,32.0,81,29.71,8.0,West,8.1,-,0.00,Rain,Light Rain,280,2012-12-10 22:43:00
5:56 PM,37.0,33.1,86,29.74,10.0,WNW,8.1,-,0.00,Rain,Light Rain,290,2012-12-10 22:56:00
6:15 PM,37.4,33.8,87,29.73,10.0,West,5.8,-,0.00,,Overcast,270,2012-12-10 23:15:00
6:56 PM,37.0,32.0,82,29.74,10.0,West,5.8,-,0.00,,Overcast,280,2012-12-10 23:56:00
7:53 PM,35.6,33.8,93,29.74,10.0,West,5.8,-,N/A,,Overcast,280,2012-12-11 00:53:00
7:56 PM,36.0,33.1,89,29.77,10.0,West,5.8,-,N/A,,Overcast,280,2012-12-11 00:56:00
8:54 PM,35.6,33.8,93,29.76,8.0,WNW,10.4,-,N/A,,Overcast,290,2012-12-11 01:54:00
8:56 PM,36.0,32.0,86,29.77,9.0,WNW,11.5,-,N/A,,Overcast,290,2012-12-11 01:56:00
9:13 PM,35.6,32.0,87,29.77,8.0,WNW,12.7,-,N/A,,Overcast,290,2012-12-11 02:13:00
9:21 PM,35.6,33.8,93,29.77,8.0,WNW,10.4,-,N/A,,Overcast,290,2012-12-11 02:21:00
9:56 PM,35.1,32.0,89,29.82,6.0,West,11.5,-,N/A,,Overcast,280,2012-12-11 02:56:00
10:46 PM,33.8,32.0,93,29.81,8.0,NNW,11.5,-,0.00,,Overcast,330,2012-12-11 03:46:00
10:56 PM,33.1,30.9,92,29.85,8.0,NNW,11.5,-,0.00,,Overcast,330,2012-12-11 03:56:00
11:07 PM,33.8,32.0,93,29.83,7.0,NW,6.9,-,N/A,,Overcast,320,2012-12-11 04:07:00
11:43 PM,32.0,30.2,93,29.84,9.0,NNW,10.4,-,N/A,,Overcast,340,2012-12-11 04:43:00
11:56 PM,32.0,30.9,96,29.87,9.0,NNW,9.2,-,N/A,,Overcast,340,2012-12-11 04:56:00